Погода в Томмоте

Погода в Томмоте : погода сейчас, прогноз погоды и архив. Всё, что Вы хотите узнать о погоде в Томмоте!

Поиск расширенной информации на нашем сайте:

Другие новости

Новости СМИ2

Главная страница сайта

Новости сайта

03.07.2017

Напоминаем, что на нашем специализированном сайте Метеоцентр.Азия вы можете получить высокодетализированные автоматические прогнозы погоды по пунктам России, СНГ и мира в авиационном формате (включающие направление и скорость ветра, видимость, явления погоды, количество и форму облачности, нижнюю и верхнюю границу облачности).

Рекомендуем: Смотрите подробности газонокосилки сабо ремонт тут.

Погода в Томмоте - сегодня

Время (UTC), дата Ветер
(°,м/с) 
Видим.   Явления Облачность Т
(°С)
Тd
(°С)
f(%) Тe
(°С)
Pmin
(гПа)
dP
(гПа)
Po
(мм)
O2
(г/м3)
Тmin Tmax R s Состояние
почвы
00 22.11.17 270 (З) 10 км  слаб. снег  10/10 2000 м 
[Ac As]
-20.9 -23.4 80 -24  1013.1  0.4  731  321  -21.5    0.6  35  равномерный
сухой снег
100% 
03 22.11.17 270 (З) 20000 м  слаб. снег  10/4 2000 м средняя, верхняя 
[Ac As|Cs]
-20.2 -23.5 75 -23  1013.3  0.3  731  320           
06 22.11.17 280 (З) 20000 м  слаб. снег  10/4 2000 м средняя, верхняя 
[Ac As|Cs]
-20 -23.3 75 -24  1013.8  0.5  732  320           
09 22.11.17 280 (З) 20000 м  слаб. снег  10/10 2000 м 
[Ac As]
-20.1 -23.4 75 -20  1014.7  0.9  733  320           
12 22.11.17 260 (З) 20000 м  слаб. снег  10/10 2000 м 
[Ac As]
-19.8 -23.1 75 -23  1015  0.3  733  320    -19.2     
15 22.11.17 280 (З) 10 км  слаб. снег  10/10 2000 м 
[Ns]
-19.4 -22.7 75 -22  1015.2  0.4  733  320           
18 22.11.17 280 (З) 10 км  слаб. снег  10/10 2000 м 
[Ns]
-19.6 -22.9 75 -22  1016.7  1.2  734  320           
21 22.11.17 310 (СЗ) 20000 м  слаб. снег  10/10 2000 м 
[Ns]
-19.8 -23.1 75 -23  1018.2  1.5  735  321           
00 23.11.17 060 (СВ) 20000 м  слаб. снег  10/10 2000 м 
[Ac As]
-21.2 -24.5 75 -22  1019.7  1.2  736  323  -21.2    35  равномерный
сухой снег
100% 
03 23.11.17 290 (З) 20000 м  {снег}  10/6 2000 м средняя, верхняя 
[Ac As|Cs]
-20.6 -23.9 75 -21  1020.4  0.7  737  323           
06 23.11.17 280 (З) 20000 м  {снег}  10/4 2000 м средняя, верхняя 
[Ac As|Cs]
-20.5 -24.6 70 -23  1020.5  0.3  737  323           
09 23.11.17 160 (Ю) 20000 м  слаб. снег  10/10 2000 м 
[Ac As]
-27.1 -29.5 80 -28  1023  1.3  738  332           
12 23.11.17 270 (З) 20000 м  слаб. снег  10/10 2000 м 
[Ac As]
-22.8 -26.1 74 -23  1023.8  1.4  739  327    -19.6  0.5     
15 23.11.17 300 (СЗ) 20000 м  слаб. снег  10/5 2000 м средняя, верхняя 
[Ac As|Cs]
-23.7 -27 74 -27  1024.2  0.2  739  328           
18 23.11.17 290 (З) 20000 м  слаб. снег  10/0 верхняя 
[Cs]
-25.4 -28.5 75 -29  1024.4  0.1  739  330           
21 23.11.17 250 (З) 20000 м  слаб. снег  10/0 верхняя 
[Cs]
-28 -30.5 79 -29  1024.9  739  334           
00 24.11.17 210 (ЮЗ) 20000 м  слаб. снег  10/0 верхняя 
[Cs]
-29.6 -32.6 75 -30  1026.1  0.9  740  336  -29.7    0.4  36  равномерный
сухой снег
100% 
03 24.11.17 280 (З) 20000 м  слаб. снег  10/6 2000 м средняя, верхняя 
[As op|Cs]
-28.7 -32.6 69 -32  1025.1  -0.9  739  335           
06 24.11.17 280 (З) 20000 м  в посл. час снег  10/3 2000 м средняя, верхняя 
[Ac As|Cs]
-29.1 -33 69 -33  1024.8  -0.3  739  335           
09 24.11.17 310 (СЗ) 20000 м  слаб. снег  10/3 2000 м средняя, верхняя 
[Ac As|Cs]
-29 -32.8 70 -30  1024.6  -0.2  739  335           
12 24.11.17 310 (СЗ) 20000 м  слаб. снег  10/4 2000 м средняя, верхняя 
[Ac As|Cs]
-30 -33.7 70 -34  1023.8  -0.9  738  336    -26.7  0.4     
15 24.11.17 280 (З) 20000 м  слаб. снег  10/4 2000 м средняя, верхняя 
[Ac As|Cs]
-30.6 -34.4 69 -31  1022.5  -1.4  737  336           
18 24.11.17 300 (СЗ) 20000 м  слаб. снег  10/6 2000 м средняя, верхняя 
[Ac As|Cs]
-30.2 -33.9 70 -34  1020.4  -1.9  735  335           
21 24.11.17 290 (З) 20000 м  слаб. снег  10/6 2000 м средняя, верхняя 
[Ac As|Cs]
-30.6 -34.4 69 -31  1019.7  -0.8  735  335           
00 25.11.17 280 (З) 10 км  слаб. снег  10/0 верхняя 
[Cs]
-29.4 -33.1 70 -33  1018.9  -0.4  735  334  -30.8    0.6  36  равномерный
сухой снег
100% 
Время (UTC), дата Ветер
(°,м/с) 
Видим.   Явления Облачность Т
(°С)
Тd
(°С)
f(%) Тe
(°С)
Pmin
(гПа)
dP
(гПа)
Po
(мм)
O2
(г/м3)
Тmin Tmax R s Состояние
почвы

Для получения пояснительной информации подведите курсор к названию столбца.

ПОГОДА в Томмоте - архив

Всё, что Вы хотите узнать о погоде в Томмоте - удобно и подробно!

Выберите нужную дату (начиная с 1 января 2015* года) и нажмите кнопку "Найти".
Будут отображены архивные сводки погоды по пункту Томмот, начиная с указанной даты.


Отображать данные в формате CSV (для использования в таблицах Excel)


Внимание! Наш архив погоды предназначен исключительно для личного некоммерческого использования в познавательных целях. Если Вам необходимы официальные справки о состоянии погоды (для производственных, юридических, коммерческих и т.п. целей), обращайтесь в органы Росгидромета.

*Примечание: данная дата относится к архиву по метеостанциям СССР (Россия, СНГ, Балтия).
Архив по метеостанциям Зарубежной Европы и Азии (кроме Китая) хранится 10 дней, по другим регионам земного шара (Китай, Африка, Америка, Австралия, Океания) - 1 день.

Томмот - район местоположения метеостанции


Название, широта, долгота, высота метеостанции:
Томмот 58.9°ш. 126.3°д. 283 м над ур. моря [Российская Федерация]

Дополнительная информация

В oтличие oт бoльшинства пoгoдных сайтoв мы публикуем пoдрoбную метеoинфoрмацию в детальнoм прoфессиoнальнoм фoрмате.

Характеристики температуры и влажнoсти вoздуха измеряются на высoте 2 м в тени вдали oт зданий и деревьев.
Скoрoсть ветра измеряется на высoте 10 м (на урoвне рoста челoвека скoрoсть ветра ниже в 1.5-2 раза). Если метеoстанция нахoдится в гoрoде или в лесу, тo скoрoсть ветра занижена на 2-4 м/с пo сравнению с oткрытым местoм. Скoрoсть ветра над акватoриями крупных рек и oзёр, а также на вершинах хoлмoв на 2-5 м/с выше, чем в oбычных услoвиях.
Атмoсфернoе давление в разных тoчках местнoсти мoжет значительнo oтличаться oт давления на метеoстанции, в зависимoсти oт услoвий рельефа (при пoдъёме на 10 м давление пoнижается примернo на 1 мм рт.ст.).